Location: Unspecified
(0.0000°N, 0.0000°E)
Time: 08:05:03
(UTC+00:00)

deb NOAA 5 - Pass Details

Date: 14 February 2026
Orbit: 1470 x 1835 km, 102.5° (Epoch: 10 March)

Event Time Altitude Azimuth Distance (km) Brightness Sun altitude
Rises 20:58:50 0° 166° (SSE) 4,850 ? -39.9°
Reaches altitude 10° 21:01:48 10° 167° (SSE) 3,817 ? -40.7°
Enters shadow 21:04:47 24° 169° (S) 2,813 ? -41.4°
Exits shadow 21:21:12 - 340° (NNW) 4,350 ? -45.3°
Sets 21:21:50 0° 341° (NNW) 4,576 ? -45.4°
